Theta_e
278 280 280 281 282 283 285 285 285 285 285 286 287 288 289 290 289 288 288 287 288 292
276 277 277 279 280 282 283 284 283 283 283 283 285 285 285 286 286 286 285 285 286 286
274 276 275 276 279 280 280 281 281 281 281 281 282 282 283 283 284 285 284 285 285 285
274 274 274 277 278 278 278 278 278 279 279 279 280 281 282 282 283 283 283 283 283 282
274 271 270 274 277 278 278 279 279 279 279 279 279 280 280 279 280 280 280 280 281 280
273 273 271 274 278 278 278 278 278 278 278 278 278 278 279 279 278 278 278 278 278 279
272 273 275 276 277 278 278 278 277 277 277 277 278 278 278 278 278 278 278 278 278 278
272 273 274 275 276 277 278 279 279 278 278 278 278 277 276 277 277 276 277 279 280 281
272 274 274 275 276 276 277 277 278 278 278 278 280 281 280 278 276 276 276 275 276 276
272 273 274 275 276 275 275 276 276 277 278 278 279 281 280 278 277 276 275 275 274 274
275 275 274 274 273 274 275 275 274 274 276 278 279 280 279 278 275 275 274 274 274 273
275 275 275 274 274 274 274 274 275 276 275 275 277 280 279 276 274 274 273 274 274 274
272 272 272 274 275 275 275 275 275 275 275 275 275 278 278 275 275 273 273 273 274 278
272 271 272 271 271 271 271 271 269 270 271 272 274 276 278 277 274 273 272 272 271 272
Wind_Speed
8 6 7 8 8 7 5 4 4 4 5 6 3 2 3 3 3 2 3 1 1 1
5 6 6 7 8 6 4 4 3 4 2 5 3 2 3 2 4 3 1 1 2 4
5 5 5 5 5 5 4 3 4 5 4 5 2 1 2 5 2 2 3 1 5 2
5 5 4 3 3 3 3 3 3 1 1 3 3 7 2 8 5 1 5 6 5 4
4 4 3 3 3 4 3 3 2 3 3 3 7 5 7 8 5 3 4 2 5 5
4 3 3 5 5 5 5 5 5 6 5 7 6 8 7 8 3 6 6 6 6 5
5 5 5 5 6 5 4 6 7 7 7 7 8 7 8 6 7 8 8 9 9 7
4 5 5 7 7 7 7 6 6 7 7 7 6 5 8 8 9 9 10 10 11 10
3 4 5 6 7 7 8 7 8 8 7 8 7 17 16 9 7 8 8 10 8 8
4 4 5 5 6 7 6 6 7 7 7 8 8 15 14 13 6 7 7 7 7 8
4 4 4 4 5 4 4 5 4 5 5 7 8 14 13 12 7 7 7 6 5 7
3 3 4 4 4 4 4 4 4 4 5 5 6 10 9 7 5 6 6 5 5 5
1 2 2 2 2 2 3 4 4 5 5 5 4 5 6 4 3 5 3 4 4 6
2 3 4 3 0 2 2 3 4 3 3 4 4 2 3 3 2 2 2 2 2 3
Wind_Direction
283 287 286 288 285 284 290 297 327 339 310 279 344 1 336 332 81 61 300 91 51 322
290 287 285 287 282 283 299 302 308 242 288 316 338 340 60 18 318 23 69 105 70 77
293 293 298 290 290 308 307 336 321 11 349 267 27 37 114 99 324 357 300 101 112 120
305 309 312 309 314 322 328 359 25 317 261 20 30 43 76 73 69 47 37 10 54 47
321 321 332 335 2 355 1 8 28 21 62 75 64 53 56 77 54 92 97 85 78 55
344 340 348 13 29 16 10 22 29 46 42 58 68 79 56 63 73 86 77 84 84 66
6 7 22 27 29 38 29 38 47 47 51 47 52 73 89 111 104 90 77 67 68 65
8 17 23 37 38 42 39 44 53 64 64 76 84 84 80 74 77 79 73 68 69 72
23 46 41 46 48 50 47 44 50 54 61 61 71 83 86 84 87 86 83 79 67 56
16 45 43 53 58 55 52 55 51 57 68 75 79 90 94 88 82 84 78 86 89 80
21 40 41 48 50 42 55 60 45 41 48 87 91 91 93 93 85 84 73 72 79 93
38 54 43 50 38 26 33 39 42 49 47 49 84 108 112 97 80 80 73 68 66 78
76 59 68 83 86 28 21 42 33 49 35 45 74 115 118 102 91 93 65 54 61 101
222 170 172 165 29 113 84 75 44 45 16 24 15 5 101 92 46 54 54 32 1 342